Location: Roanoke
(37.2710°N, 79.9420°W)
Time: 13:58:57
(UTC-05:00)

Explorer 11/Cluster Stage 4 - All Passes

Search period start: 20 November 2019 00:00
Search period end: 30 November 2019 00:00
Orbit: 467 x 1259 km, 28.8° (Epoch: 20 November)

Date Brightness Start Highest point End Pass type
(mag) Time Alt. Az. Time Alt. Az. Time Alt. Az.
20 Nov - 01:21:57 10° WSW 01:26:59 19° SSW 01:32:14 10° SSE night (unlit)
20 Nov - 18:01:08 10° S 18:03:04 12° SSE 18:05:10 10° SE visible
20 Nov - 19:46:05 10° SW 19:50:42 30° SSE 19:56:17 10° ESE visible
20 Nov - 21:33:23 10° WSW 21:38:59 40° S 21:45:44 10° ESE night (unlit)
20 Nov - 23:21:38 10° WSW 23:27:33 31° SSW 23:34:17 10° SE night (unlit)
21 Nov - 01:11:45 10° WSW 01:16:03 16° SSW 01:20:33 10° S night (unlit)
21 Nov - 17:50:06 10° S 17:52:18 13° SSE 17:54:41 10° SE visible
21 Nov - 19:35:30 10° SW 19:39:57 31° SSE 19:45:21 10° ESE visible
21 Nov - 21:22:50 10° WSW 21:28:11 38° S 21:34:40 10° ESE visible
21 Nov - 23:11:09 10° WSW 23:16:42 28° SSW 23:23:03 10° SE night (unlit)
22 Nov - 01:01:50 10° SW 01:05:09 13° SSW 01:08:36 10° S night (unlit)
22 Nov - 17:39:12 10° S 17:41:33 14° SSE 17:44:09 10° ESE visible
22 Nov - 19:24:56 10° SW 19:29:13 31° S 19:34:25 10° ESE visible
22 Nov - 21:12:20 10° WSW 21:17:25 36° S 21:23:36 10° ESE visible
22 Nov - 23:00:44 10° WSW 23:05:52 25° SSW 23:11:44 10° SE night (unlit)
23 Nov - 00:52:39 10° SW 00:54:16 11° SSW 00:55:55 10° SSW night (unlit)
23 Nov - 17:28:22 10° SSW 17:30:50 15° SSE 17:33:33 10° ESE visible
23 Nov - 19:14:24 10° SW 19:18:31 31° S 19:23:30 10° ESE visible
23 Nov - 21:01:52 10° WSW 21:06:40 33° S 21:12:31 10° SE visible
23 Nov - 22:50:24 10° WSW 22:55:02 22° SSW 23:00:20 10° SSE night (unlit)
24 Nov - 17:17:35 10° SSW 17:20:08 16° SSE 17:22:57 10° ESE daylight
24 Nov - 19:03:53 10° SW 19:07:50 30° S 19:12:35 10° ESE visible
24 Nov - 20:51:26 10° WSW 20:55:57 30° S 21:01:24 10° SE visible
24 Nov - 22:40:11 10° WSW 22:44:15 18° SSW 22:48:50 10° SSE night (unlit)
25 Nov - 17:06:51 10° SSW 17:09:28 17° SSE 17:12:19 10° ESE daylight
25 Nov - 18:53:24 10° WSW 18:57:10 29° S 19:01:41 10° ESE visible
25 Nov - 20:41:02 10° WSW 20:45:14 27° S 20:50:16 10° SE visible
25 Nov - 22:30:09 10° SW 22:33:28 15° SSW 22:37:09 10° SSE night (unlit)
26 Nov - 16:56:10 10° SSW 16:58:48 18° SSE 17:01:41 10° ESE daylight
26 Nov - 18:42:55 10° WSW 18:46:31 28° S 18:50:46 10° ESE visible
26 Nov - 20:30:41 10° WSW 20:34:33 24° S 20:39:05 10° SE visible
26 Nov - 22:20:27 10° SW 22:22:43 12° SSW 22:25:09 10° S night (unlit)
27 Nov - 16:45:30 10° SSW 16:48:10 19° SSE 16:51:03 10° ESE daylight
27 Nov - 18:32:28 10° WSW 18:35:54 26° S 18:39:53 10° ESE visible
27 Nov - 20:20:24 10° WSW 20:23:51 20° SSW 20:27:52 10° SE visible
28 Nov - 16:34:50 10° SW 16:37:32 19° S 16:40:25 10° ESE daylight
28 Nov - 18:22:02 10° WSW 18:25:17 25° S 18:28:59 10° SE visible
28 Nov - 20:10:12 10° SW 20:13:12 17° SSW 20:16:35 10° SSE visible
29 Nov - 16:24:11 10° SW 16:26:56 20° S 16:29:49 10° ESE daylight
29 Nov - 18:11:36 10° WSW 18:14:39 23° S 18:18:05 10° SE visible
29 Nov - 20:00:09 10° SW 20:02:32 14° SSW 20:05:10 10° SSE visible
